User: anonymous   Login
Location: Asheville, NC
(35.6000°N, 82.5500°W)
Time: 21:56:43
(UTC-04:00)
Language:

XW-2B - Orbit

View from above orbital plane
View from above orbital plane
View from above satellite
View from above satellite

Ground track
Ground track

The orbit data is extracted from the following two-line orbital elements,

1 40911U 15049N   18115.45830130  .00000841  00000-0  48226-4 0  9993
2 40911  97.4614 120.1396 0013539 205.0771 154.9805 15.15214844143413
Epoch (UTC): 25 April 2018 10:59:57
Eccentricity: 0.0013539
inclination: 97.4614°
perigee height: 511 km
apogee height: 529 km
right ascension of ascending node: 120.1396°
argument of perigee: 205.0771°
revolutions per day: 15.15214844
mean anomaly at epoch: 154.9805°
orbit number at epoch: 14341

The dashed part of the orbit path shows where the satellite is in the earth's shadow,  

DLR